User: anonymous   Login
Location: Montr�al
(45.5000°N, 73.5830°W)
Time: 00:20:59
(UTC-04:00)
Language:

Cosmos 2369 - Orbit

View from above orbital plane
View from above orbital plane
View from above satellite
View from above satellite

Ground track
Ground track

The orbit data is extracted from the following two-line orbital elements,

1 26069U 00006A   16206.53277269 -.00000111  00000-0 -33733-4 0  9993
2 26069  70.9945 325.4529 0010756 356.1758   3.9279 14.13321006849825
Epoch (UTC): 24 July 2016 12:47:11
Eccentricity: 0.0010756
inclination: 70.9945°
perigee height: 840 km
apogee height: 856 km
right ascension of ascending node: 325.4529°
argument of perigee: 356.1758°
revolutions per day: 14.13321006
mean anomaly at epoch: 3.9279°
orbit number at epoch: 84982

The dashed part of the orbit path shows where the satellite is in the earth's shadow,  

DLR